Location: Shenandoah County Park
(38.9356°N, 78.4524°W)
Time: 01:12:39
(UTC-05:00)

Envisat - Pass Details

Date: 28 November 2021
Orbit: 764 x 766 km, 98.2° (Epoch: 23 January)

Event Time Altitude Azimuth Distance (km) Brightness Sun altitude
Rises 05:56:57 0° 3° (N) 3,240 6.1 -14.2°
Reaches altitude 10° 05:59:25 10° 355° (N) 2,310 5.3 -13.7°
Maximum altitude 06:04:02 36° 290° (WNW) 1,197 3.5 -12.8°
Drops below altitude 10° 06:08:37 10° 225° (SW) 2,295 5.2 -12.0°
Sets 06:11:04 0° 217° (SW) 3,217 6.0 -11.5°
